ARIANE 5 R/B (45248 NORAD) Tracking and Keplerian Element Data

This shows tracking and keplerian element data for the satellite.

Feedback or suggestion? Click here.




ElementValue
Catalog45248
NameARIANE 5 R/B
Epoch Orbit45
Epoch Day69.68158485
Epoch Year2020
RAAN306.1146
Inclination5.6884
Eccentricity0.7264766
Argument of Perigee191.4835
Mean Anonmoly131.1485
Mean Motion2.29852867
Decay Rate1.375E-05
L11 45248U 20013D 20069.68158485 .00001375 00000-0 45359-3 0 9996
L22 45248 5.6884 306.1146 7264766 191.4835 131.1485 2.29852867 457

Live tracking and technical data element details for ARIANE 5 R/B (NORAD 45248). ARIANE 5 R/B can be tracked NOW for your location showing map with azimuth and elevation plus other details from your city location.

Track the satellite on the map from your city or location and see movement details for azimuth, elevation, latitude, longitude, range, height, and movement on the map or in text.







IsCatalogInMostPopularTable: catalog: 45248, numindb: 29
Update: records affected: 1



GetName: 45248 ARIANE 5 R/B

Hit Count: updated at: Fri, 03 Jul 2020 17:33:13 GMT